QBA62E CYHZ-CYUL

Flight info

Callsign QBA62E
Flight time 1h 26m
Altitude 38000
Route KELNO Q806 MLT DCT KEBIG ROCKT3
Aircraft B736/M-SDE2E3FGHIRWXY/LB1

Departure

Time 2026-05-05 01:23
Airport Halifax / Stanfield International Airport (CYHZ)

Arrival

Time 2026-05-05 02:50
Airport Montreal / Pierre Elliott Trudeau International Airport (CYUL)
Time Latitude Longitude Altitude Speed Heading
2026-05-05 00:56 44.88610 -63.51361 451 ft 0 kts 303°
2026-05-05 01:13 44.88601 -63.51340 435 ft 4 kts 295°
2026-05-05 01:13 44.88591 -63.51304 437 ft 4 kts 281°
2026-05-05 01:13 44.88589 -63.51267 451 ft 4 kts 265°
2026-05-05 01:14 44.88594 -63.51230 449 ft 4 kts 251°
2026-05-05 01:14 44.88604 -63.51195 449 ft 4 kts 240°
2026-05-05 01:14 44.88619 -63.51163 450 ft 4 kts 238°
2026-05-05 01:14 44.88628 -63.51136 451 ft 0 kts 258°
2026-05-05 01:15 44.88628 -63.51135 451 ft 0 kts 258°
2026-05-05 01:17 44.88628 -63.51146 451 ft 3 kts 267°
2026-05-05 01:17 44.88652 -63.51197 450 ft 10 kts 331°
2026-05-05 01:17 44.88699 -63.51144 451 ft 11 kts 82°
2026-05-05 01:18 44.88712 -63.51043 449 ft 10 kts 79°
2026-05-05 01:18 44.88723 -63.50944 451 ft 10 kts 89°
2026-05-05 01:18 44.88695 -63.50857 451 ft 10 kts 124°
2026-05-05 01:18 44.88675 -63.50817 451 ft 0 kts 125°
2026-05-05 01:21 44.88669 -63.50805 451 ft 5 kts 125°
2026-05-05 01:21 44.88639 -63.50745 451 ft 8 kts 126°
2026-05-05 01:21 44.88593 -63.50724 450 ft 7 kts 204°
2026-05-05 01:22 44.88576 -63.50741 451 ft 0 kts 215°
2026-05-05 01:22 44.88555 -63.50761 450 ft 17 kts 214°
2026-05-05 01:22 44.88258 -63.51055 448 ft 86 kts 215°
2026-05-05 01:22 44.87606 -63.51700 453 ft 139 kts 217°
2026-05-05 01:23 44.86786 -63.52555 834 ft 150 kts 216°
2026-05-05 01:23 44.85936 -63.53450 1426 ft 153 kts 222°
2026-05-05 01:23 44.85118 -63.54429 1962 ft 163 kts 231°
2026-05-05 01:23 44.84314 -63.55609 2542 ft 169 kts 236°
2026-05-05 01:24 44.83696 -63.56962 3241 ft 161 kts 262°
2026-05-05 01:24 44.83760 -63.58611 3535 ft 183 kts 284°
2026-05-05 01:24 44.84404 -63.60334 3805 ft 214 kts 298°
2026-05-05 01:24 44.85269 -63.62108 4516 ft 221 kts 298°
2026-05-05 01:25 44.86167 -63.63915 5242 ft 228 kts 299°
2026-05-05 01:25 44.87081 -63.65745 6128 ft 229 kts 298°
2026-05-05 01:25 44.88000 -63.67590 6976 ft 231 kts 298°
2026-05-05 01:25 44.88929 -63.69458 7887 ft 235 kts 299°
2026-05-05 01:26 44.89870 -63.71357 8799 ft 237 kts 299°
2026-05-05 01:26 44.90823 -63.73282 9746 ft 241 kts 299°
2026-05-05 01:26 44.91788 -63.75238 10516 ft 250 kts 299°
2026-05-05 01:26 44.92470 -63.76629 10665 ft 270 kts 299°
2026-05-05 01:27 44.93579 -63.78894 11085 ft 289 kts 300°
2026-05-05 01:27 44.94741 -63.81253 11886 ft 295 kts 300°
2026-05-05 01:27 44.95916 -63.83634 12848 ft 297 kts 300°
2026-05-05 01:27 44.97101 -63.86039 13775 ft 300 kts 300°
2026-05-05 01:28 44.98298 -63.88471 14645 ft 302 kts 299°
2026-05-05 01:28 44.99497 -63.90912 15585 ft 303 kts 299°
2026-05-05 01:28 45.00697 -63.93358 16564 ft 303 kts 299°
2026-05-05 01:28 45.01899 -63.95812 17493 ft 305 kts 299°
2026-05-05 01:29 45.03110 -63.98287 18375 ft 307 kts 299°
2026-05-05 01:29 45.04325 -64.00773 19185 ft 308 kts 299°
2026-05-05 01:29 45.05549 -64.03279 19993 ft 310 kts 300°
2026-05-05 01:29 45.06776 -64.05794 20801 ft 311 kts 300°
2026-05-05 01:30 45.07994 -64.08292 21576 ft 313 kts 300°
2026-05-05 01:30 45.09234 -64.10837 22362 ft 315 kts 301°
2026-05-05 01:30 45.10482 -64.13402 23151 ft 318 kts 301°
2026-05-05 01:30 45.11706 -64.16015 23805 ft 319 kts 297°
2026-05-05 01:31 45.12659 -64.18865 24365 ft 322 kts 291°
2026-05-05 01:31 45.13421 -64.21866 24950 ft 326 kts 287°
2026-05-05 01:31 45.13907 -64.25019 25551 ft 330 kts 282°
2026-05-05 01:31 45.14276 -64.28248 26069 ft 335 kts 281°
2026-05-05 01:32 45.14627 -64.31532 26578 ft 339 kts 281°
2026-05-05 01:32 45.14977 -64.34860 27080 ft 344 kts 281°
2026-05-05 01:32 45.15332 -64.38226 27588 ft 347 kts 281°
2026-05-05 01:32 45.15693 -64.41632 28086 ft 351 kts 281°
2026-05-05 01:33 45.16060 -64.45074 28563 ft 355 kts 281°
2026-05-05 01:33 45.16432 -64.48556 28792 ft 359 kts 281°
2026-05-05 01:33 45.17177 -64.55528 28805 ft 358 kts 281°
2026-05-05 01:34 45.17916 -64.62480 28812 ft 354 kts 282°
2026-05-05 01:34 45.18644 -64.69343 28812 ft 351 kts 282°
2026-05-05 01:35 45.19367 -64.76178 28814 ft 351 kts 282°
2026-05-05 01:35 45.20090 -64.83049 28821 ft 353 kts 282°
2026-05-05 01:36 45.20811 -64.89950 28820 ft 355 kts 282°
2026-05-05 01:36 45.21530 -64.96887 28794 ft 356 kts 282°
2026-05-05 01:37 45.22245 -65.03823 28817 ft 355 kts 283°
2026-05-05 01:37 45.22953 -65.10731 28825 ft 354 kts 283°
2026-05-05 01:38 45.23654 -65.17625 28809 ft 352 kts 283°
2026-05-05 01:38 45.24351 -65.24503 28818 ft 352 kts 283°
2026-05-05 01:39 45.25044 -65.31384 28819 ft 353 kts 283°
2026-05-05 01:39 45.25730 -65.38240 28809 ft 353 kts 284°
2026-05-05 01:40 45.26418 -65.45160 28817 ft 355 kts 283°
2026-05-05 01:40 45.27105 -65.52119 28825 ft 356 kts 283°
2026-05-05 01:41 45.27789 -65.59090 28825 ft 357 kts 283°
2026-05-05 01:41 45.28469 -65.66069 28830 ft 356 kts 283°
2026-05-05 01:42 45.29148 -65.73070 29063 ft 362 kts 283°
2026-05-05 01:42 45.29491 -65.76624 29604 ft 364 kts 283°
2026-05-05 01:42 45.29833 -65.80183 30171 ft 363 kts 283°
2026-05-05 01:43 45.30172 -65.83742 30656 ft 364 kts 283°
2026-05-05 01:43 45.30513 -65.87312 31027 ft 367 kts 282°
2026-05-05 01:43 45.30857 -65.90924 31387 ft 370 kts 282°
2026-05-05 01:43 45.31201 -65.94553 31792 ft 372 kts 282°
2026-05-05 01:44 45.31545 -65.98202 32185 ft 374 kts 281°
2026-05-05 01:44 45.31890 -66.01875 32548 ft 376 kts 281°
2026-05-05 01:44 45.32236 -66.05566 32931 ft 378 kts 281°
2026-05-05 01:44 45.32583 -66.09282 33306 ft 380 kts 280°
2026-05-05 01:45 45.32930 -66.13015 33642 ft 382 kts 280°
2026-05-05 01:45 45.33277 -66.16761 34019 ft 383 kts 280°
2026-05-05 01:45 45.33624 -66.20518 34316 ft 384 kts 280°
2026-05-05 01:45 45.33972 -66.24290 34563 ft 387 kts 279°
2026-05-05 01:46 45.34316 -66.28037 34831 ft 388 kts 279°
2026-05-05 01:46 45.34664 -66.31846 35123 ft 389 kts 279°
2026-05-05 01:46 45.35012 -66.35676 35379 ft 391 kts 279°
2026-05-05 01:46 45.35361 -66.39523 35635 ft 393 kts 279°
2026-05-05 01:47 45.35710 -66.43381 35908 ft 394 kts 278°
2026-05-05 01:47 45.36058 -66.47253 36172 ft 396 kts 278°
2026-05-05 01:47 45.36407 -66.51150 36419 ft 397 kts 278°
2026-05-05 01:47 45.36756 -66.55049 36691 ft 398 kts 278°
2026-05-05 01:48 45.37104 -66.58962 36951 ft 400 kts 278°
2026-05-05 01:48 45.37453 -66.62893 37183 ft 401 kts 278°
2026-05-05 01:48 45.37805 -66.66835 37435 ft 402 kts 278°
2026-05-05 01:48 45.38230 -66.70774 37693 ft 403 kts 280°
2026-05-05 01:49 45.38705 -66.74714 37826 ft 407 kts 280°
2026-05-05 01:49 45.39191 -66.78641 37828 ft 409 kts 280°
2026-05-05 01:49 45.40165 -66.86607 37827 ft 405 kts 280°
2026-05-05 01:50 45.41093 -66.94436 37824 ft 400 kts 280°
2026-05-05 01:50 45.42005 -67.02252 37827 ft 400 kts 280°
2026-05-05 01:51 45.42911 -67.10077 37819 ft 401 kts 280°
2026-05-05 01:51 45.43812 -67.17915 37816 ft 402 kts 280°
2026-05-05 01:52 45.44710 -67.25770 37814 ft 402 kts 280°
2026-05-05 01:52 45.45605 -67.33649 37810 ft 403 kts 280°
2026-05-05 01:53 45.46496 -67.41536 37813 ft 404 kts 280°
2026-05-05 01:53 45.47382 -67.49432 37816 ft 404 kts 279°
2026-05-05 01:54 45.48270 -67.57348 37815 ft 404 kts 279°
2026-05-05 01:54 45.49158 -67.65266 37814 ft 405 kts 280°
2026-05-05 01:55 45.50061 -67.73181 37819 ft 404 kts 280°
2026-05-05 01:55 45.50961 -67.81092 37823 ft 404 kts 280°
2026-05-05 01:56 45.51856 -67.89015 37826 ft 404 kts 279°
2026-05-05 01:56 45.52737 -67.96874 37830 ft 404 kts 279°
2026-05-05 01:57 45.53618 -68.04795 37827 ft 404 kts 279°
2026-05-05 01:57 45.54494 -68.12715 37827 ft 404 kts 279°
2026-05-05 01:58 45.55362 -68.20622 37830 ft 404 kts 279°
2026-05-05 01:58 45.56227 -68.28550 37828 ft 403 kts 279°
2026-05-05 01:59 45.57083 -68.36446 37831 ft 403 kts 279°
2026-05-05 01:59 45.57936 -68.44352 37832 ft 403 kts 279°
2026-05-05 02:00 45.58804 -68.52234 37840 ft 402 kts 282°
2026-05-05 02:00 45.60138 -68.59909 37854 ft 401 kts 285°
2026-05-05 02:01 45.61594 -68.67580 37852 ft 400 kts 285°
2026-05-05 02:01 45.63029 -68.75265 37850 ft 400 kts 285°
2026-05-05 02:02 45.64433 -68.82948 37841 ft 399 kts 285°
2026-05-05 02:02 45.65821 -68.90626 37847 ft 399 kts 285°
2026-05-05 02:03 45.67202 -68.98312 37841 ft 399 kts 285°
2026-05-05 02:03 45.68581 -69.06017 37829 ft 400 kts 284°
2026-05-05 02:04 45.69953 -69.13720 37828 ft 400 kts 284°
2026-05-05 02:04 45.71325 -69.21452 37815 ft 401 kts 284°
2026-05-05 02:05 45.72692 -69.29192 37819 ft 401 kts 284°
2026-05-05 02:05 45.74056 -69.36947 37808 ft 402 kts 284°
2026-05-05 02:06 45.75418 -69.44722 37801 ft 403 kts 284°
2026-05-05 02:06 45.76766 -69.52455 37797 ft 403 kts 284°
2026-05-05 02:07 45.78129 -69.60303 37795 ft 404 kts 284°
2026-05-05 02:07 45.79469 -69.68058 37801 ft 404 kts 284°
2026-05-05 02:08 45.80813 -69.75869 37797 ft 404 kts 284°
2026-05-05 02:08 45.82152 -69.83683 37797 ft 403 kts 284°
2026-05-05 02:09 45.83485 -69.91496 37801 ft 403 kts 284°
2026-05-05 02:09 45.84810 -69.99304 37804 ft 403 kts 284°
2026-05-05 02:10 45.86129 -70.07105 37800 ft 402 kts 284°
2026-05-05 02:10 45.87441 -70.14905 37804 ft 402 kts 284°
2026-05-05 02:11 45.88746 -70.22697 37796 ft 401 kts 284°
2026-05-05 02:11 45.90045 -70.30485 37800 ft 401 kts 284°
2026-05-05 02:12 45.91981 -70.42159 37798 ft 401 kts 284°
2026-05-05 02:13 45.93264 -70.49944 37789 ft 400 kts 284°
2026-05-05 02:13 45.94532 -70.57669 37795 ft 400 kts 284°
2026-05-05 02:14 45.95802 -70.65441 37793 ft 400 kts 283°
2026-05-05 02:14 45.97067 -70.73220 37786 ft 399 kts 283°
2026-05-05 02:15 45.98328 -70.81003 37370 ft 404 kts 283°
2026-05-05 02:15 45.98948 -70.84925 36830 ft 401 kts 282°
2026-05-05 02:15 45.99145 -70.88904 36256 ft 399 kts 271°
2026-05-05 02:15 45.99048 -70.92878 35637 ft 397 kts 271°
2026-05-05 02:16 45.98932 -70.96802 35172 ft 390 kts 271°
2026-05-05 02:16 45.98857 -70.99375 34808 ft 386 kts 272°
2026-05-05 02:16 45.98753 -71.03197 34338 ft 380 kts 273°
2026-05-05 02:16 45.98658 -71.06967 33863 ft 374 kts 273°
2026-05-05 02:17 45.98570 -71.10671 33328 ft 368 kts 273°
2026-05-05 02:17 45.98487 -71.14311 32845 ft 362 kts 273°
2026-05-05 02:17 45.98405 -71.17896 32376 ft 356 kts 273°
2026-05-05 02:17 45.98299 -71.22566 31766 ft 349 kts 273°
2026-05-05 02:18 45.98245 -71.24922 31450 ft 346 kts 273°
2026-05-05 02:18 45.98165 -71.28358 31017 ft 342 kts 272°
2026-05-05 02:18 45.98085 -71.31758 30582 ft 339 kts 272°
2026-05-05 02:18 45.98005 -71.35124 30152 ft 336 kts 272°
2026-05-05 02:19 45.97925 -71.38423 29716 ft 333 kts 272°
2026-05-05 02:19 45.97844 -71.41729 29246 ft 329 kts 272°
2026-05-05 02:19 45.97764 -71.44995 28804 ft 325 kts 272°
2026-05-05 02:19 45.97682 -71.48221 28377 ft 321 kts 272°
2026-05-05 02:20 45.97601 -71.51407 27940 ft 317 kts 271°
2026-05-05 02:20 45.97519 -71.54561 27546 ft 313 kts 271°
2026-05-05 02:20 45.97437 -71.57682 27197 ft 311 kts 271°
2026-05-05 02:20 45.97355 -71.60805 26850 ft 316 kts 271°
2026-05-05 02:21 45.97272 -71.63987 26499 ft 321 kts 271°
2026-05-05 02:21 45.97186 -71.67200 26119 ft 322 kts 271°
2026-05-05 02:21 45.97099 -71.70405 25751 ft 320 kts 270°
2026-05-05 02:21 45.97011 -71.73597 25392 ft 319 kts 270°
2026-05-05 02:22 45.96922 -71.76776 25039 ft 317 kts 270°
2026-05-05 02:22 45.96833 -71.79940 24664 ft 316 kts 270°
2026-05-05 02:22 45.96744 -71.83092 24330 ft 315 kts 270°
2026-05-05 02:22 45.96654 -71.86246 23968 ft 315 kts 270°
2026-05-05 02:23 45.96564 -71.89390 23620 ft 315 kts 270°
2026-05-05 02:23 45.96474 -71.92491 23264 ft 315 kts 270°
2026-05-05 02:23 45.96382 -71.95633 22847 ft 314 kts 269°
2026-05-05 02:23 45.96289 -71.98761 22464 ft 313 kts 269°
2026-05-05 02:24 45.96196 -72.01879 22089 ft 311 kts 269°
2026-05-05 02:24 45.96102 -72.04966 21745 ft 307 kts 269°
2026-05-05 02:24 45.96010 -72.08006 21388 ft 302 kts 269°
2026-05-05 02:24 45.95918 -72.10991 21055 ft 298 kts 269°
2026-05-05 02:25 45.95826 -72.13948 20726 ft 295 kts 269°
2026-05-05 02:25 45.95735 -72.16889 20398 ft 293 kts 269°
2026-05-05 02:25 45.95643 -72.19808 20053 ft 291 kts 269°
2026-05-05 02:25 45.95551 -72.22712 19731 ft 290 kts 269°
2026-05-05 02:26 45.95459 -72.25604 19408 ft 288 kts 269°
2026-05-05 02:26 45.95368 -72.28474 19088 ft 287 kts 269°
2026-05-05 02:26 45.95275 -72.31337 18766 ft 286 kts 269°
2026-05-05 02:26 45.95182 -72.34187 18446 ft 285 kts 269°
2026-05-05 02:27 45.95088 -72.37027 18123 ft 284 kts 269°
2026-05-05 02:27 45.94935 -72.39850 17763 ft 284 kts 262°
2026-05-05 02:27 45.94284 -72.42544 17416 ft 287 kts 249°
2026-05-05 02:27 45.93366 -72.45093 17081 ft 287 kts 246°
2026-05-05 02:28 45.92412 -72.47603 16743 ft 285 kts 246°
2026-05-05 02:28 45.91463 -72.50088 16422 ft 283 kts 246°
2026-05-05 02:28 45.90536 -72.52526 16194 ft 278 kts 246°
2026-05-05 02:28 45.89624 -72.54917 16200 ft 270 kts 246°
2026-05-05 02:29 45.88713 -72.57305 16211 ft 276 kts 246°
2026-05-05 02:29 45.87786 -72.59749 16218 ft 281 kts 246°
2026-05-05 02:29 45.86848 -72.62225 16213 ft 282 kts 246°
2026-05-05 02:29 45.86033 -72.64747 16204 ft 277 kts 255°
2026-05-05 02:30 45.85473 -72.67376 16205 ft 275 kts 257°
2026-05-05 02:30 45.84960 -72.70013 16193 ft 274 kts 257°
2026-05-05 02:30 45.84455 -72.72675 16020 ft 279 kts 257°
2026-05-05 02:30 45.83954 -72.75351 15745 ft 276 kts 257°
2026-05-05 02:31 45.83466 -72.77986 15483 ft 271 kts 257°
2026-05-05 02:31 45.82989 -72.80590 15229 ft 270 kts 257°
2026-05-05 02:31 45.82517 -72.83202 14986 ft 272 kts 257°
2026-05-05 02:31 45.82051 -72.85832 14774 ft 273 kts 257°
2026-05-05 02:32 45.81594 -72.88472 14554 ft 273 kts 257°
2026-05-05 02:32 45.81144 -72.91120 14336 ft 273 kts 258°
2026-05-05 02:32 45.80699 -72.93771 14110 ft 272 kts 258°
2026-05-05 02:32 45.80263 -72.96401 13891 ft 270 kts 258°
2026-05-05 02:33 45.79836 -72.99006 13669 ft 267 kts 258°
2026-05-05 02:33 45.79423 -73.01545 13444 ft 264 kts 258°
2026-05-05 02:33 45.79011 -73.04098 13200 ft 262 kts 258°
2026-05-05 02:33 45.78605 -73.06635 12963 ft 261 kts 258°
2026-05-05 02:34 45.78203 -73.09166 12731 ft 260 kts 258°
2026-05-05 02:34 45.77805 -73.11685 12493 ft 259 kts 258°
2026-05-05 02:34 45.77411 -73.14199 12262 ft 259 kts 258°
2026-05-05 02:34 45.77020 -73.16718 12024 ft 259 kts 258°
2026-05-05 02:35 45.76634 -73.19233 11785 ft 259 kts 258°
2026-05-05 02:35 45.76251 -73.21752 11563 ft 259 kts 258°
2026-05-05 02:35 45.75872 -73.24272 11335 ft 259 kts 258°
2026-05-05 02:35 45.75496 -73.26789 11118 ft 259 kts 258°
2026-05-05 02:36 45.75124 -73.29308 10887 ft 259 kts 258°
2026-05-05 02:36 45.74757 -73.31818 10657 ft 254 kts 258°
2026-05-05 02:36 45.74405 -73.34261 10422 ft 248 kts 258°
2026-05-05 02:36 45.74064 -73.36658 10189 ft 242 kts 258°
2026-05-05 02:37 45.73735 -73.38994 9963 ft 237 kts 258°
2026-05-05 02:37 45.73421 -73.41265 9748 ft 234 kts 258°
2026-05-05 02:37 45.73109 -73.43547 9523 ft 233 kts 258°
2026-05-05 02:37 45.72804 -73.45814 9281 ft 232 kts 258°
2026-05-05 02:38 45.72501 -73.48069 9064 ft 231 kts 258°
2026-05-05 02:38 45.72202 -73.50324 8817 ft 230 kts 258°
2026-05-05 02:38 45.71907 -73.52565 8580 ft 229 kts 257°
2026-05-05 02:38 45.71293 -73.54633 8335 ft 228 kts 237°
2026-05-05 02:39 45.70346 -73.56441 8120 ft 227 kts 234°
2026-05-05 02:39 45.69384 -73.58226 7893 ft 226 kts 234°
2026-05-05 02:39 45.68414 -73.59991 7663 ft 226 kts 232°
2026-05-05 02:39 45.67363 -73.61655 7441 ft 225 kts 230°
2026-05-05 02:40 45.66296 -73.63281 7238 ft 223 kts 229°
2026-05-05 02:40 45.65230 -73.64894 7036 ft 222 kts 229°
2026-05-05 02:40 45.64172 -73.66497 6838 ft 221 kts 229°
2026-05-05 02:40 45.63124 -73.68084 6639 ft 219 kts 229°
2026-05-05 02:41 45.62078 -73.69663 6444 ft 218 kts 229°
2026-05-05 02:41 45.61039 -73.71234 6260 ft 217 kts 229°
2026-05-05 02:41 45.60003 -73.72803 6061 ft 219 kts 229°
2026-05-05 02:41 45.58945 -73.74405 5863 ft 224 kts 229°
2026-05-05 02:42 45.57864 -73.76040 5670 ft 228 kts 229°
2026-05-05 02:42 45.56771 -73.77696 5466 ft 228 kts 229°
2026-05-05 02:42 45.55684 -73.79331 5263 ft 226 kts 229°
2026-05-05 02:42 45.54600 -73.80950 5060 ft 224 kts 229°
2026-05-05 02:43 45.53524 -73.82552 4878 ft 222 kts 229°
2026-05-05 02:43 45.52469 -73.84115 4692 ft 220 kts 229°
2026-05-05 02:43 45.51415 -73.85668 4508 ft 214 kts 229°
2026-05-05 02:43 45.50372 -73.87113 4277 ft 206 kts 227°
2026-05-05 02:44 45.49317 -73.88479 4043 ft 204 kts 226°
2026-05-05 02:44 45.48262 -73.89833 3814 ft 205 kts 226°
2026-05-05 02:44 45.47201 -73.91195 3580 ft 205 kts 226°
2026-05-05 02:44 45.46163 -73.92531 3354 ft 196 kts 226°
2026-05-05 02:45 45.45170 -73.93807 3117 ft 189 kts 226°
2026-05-05 02:45 45.44204 -73.95053 2887 ft 187 kts 226°
2026-05-05 02:45 45.43098 -73.96035 2630 ft 196 kts 201°
2026-05-05 02:45 45.41699 -73.95872 2457 ft 215 kts 166°
2026-05-05 02:46 45.40491 -73.94484 2275 ft 233 kts 137°
2026-05-05 02:46 45.39496 -73.92703 2106 ft 225 kts 138°
2026-05-05 02:46 45.38520 -73.91002 2016 ft 220 kts 138°
2026-05-05 02:46 45.37686 -73.89161 1983 ft 230 kts 113°
2026-05-05 02:47 45.37741 -73.86869 1998 ft 238 kts 68°
2026-05-05 02:47 45.38748 -73.85180 1980 ft 217 kts 24°
2026-05-05 02:47 45.40058 -73.84299 1710 ft 204 kts 27°
2026-05-05 02:47 45.41108 -73.83057 1502 ft 187 kts 41°
2026-05-05 02:48 45.42018 -73.81875 1250 ft 169 kts 41°
2026-05-05 02:48 45.42847 -73.80795 1007 ft 153 kts 42°
2026-05-05 02:48 45.43581 -73.79831 825 ft 140 kts 44°
2026-05-05 02:48 45.44292 -73.78892 644 ft 139 kts 45°
2026-05-05 02:49 45.44999 -73.77963 461 ft 138 kts 45°
2026-05-05 02:49 45.45702 -73.77042 289 ft 137 kts 45°
2026-05-05 02:49 45.46393 -73.76137 107 ft 126 kts 46°
2026-05-05 02:49 45.46893 -73.75464 107 ft 70 kts 42°
2026-05-05 02:50 45.47134 -73.75073 112 ft 36 kts 78°
2026-05-05 02:50 45.47160 -73.74834 111 ft 12 kts 102°
2026-05-05 02:50 45.47094 -73.74825 111 ft 12 kts 218°
2026-05-05 02:50 45.47024 -73.74915 110 ft 15 kts 221°
2026-05-05 02:51 45.46941 -73.75020 108 ft 16 kts 219°
2026-05-05 02:51 45.46835 -73.75038 108 ft 15 kts 178°
2026-05-05 02:51 45.46730 -73.75031 107 ft 15 kts 178°
2026-05-05 02:51 45.46628 -73.75025 106 ft 15 kts 177°
2026-05-05 02:52 45.46522 -73.75019 105 ft 15 kts 178°
2026-05-05 02:52 45.46418 -73.75012 104 ft 16 kts 177°
2026-05-05 02:52 45.46307 -73.75005 105 ft 16 kts 177°
2026-05-05 02:52 45.46195 -73.74998 103 ft 14 kts 175°
2026-05-05 02:53 45.46152 -73.74917 103 ft 9 kts 89°
2026-05-05 02:53 45.46135 -73.74854 102 ft 7 kts 136°
2026-05-05 02:53 45.46097 -73.74838 104 ft 5 kts 178°
2026-05-05 02:53 45.46076 -73.74837 104 ft 3 kts 177°
2026-05-05 02:54 45.46072 -73.74837 104 ft 0 kts 177°
2026-05-05 02:54 45.46073 -73.74837 104 ft 0 kts 178°